SXEIN LGAV-LGSK

Flight info

Callsign SXEIN
Flight time 0h 36m
Altitude 5500
Route VFR VRP AGIOS THOMAS VRP STAVROS
Aircraft K100/L-SDE/L

Departure

Time 2026-04-25 17:48
Airport Athens Eleftherios Venizelos International Airport (LGAV)

Arrival

Time 2026-04-25 18:25
Airport Skiathos Island National Airport (LGSK)
Time Latitude Longitude Altitude Speed Heading
2026-04-25 17:41 37.92361 23.93856 298 ft 0 kts 37°
2026-04-25 17:44 37.92373 23.93877 299 ft 5 kts 55°
2026-04-25 17:44 37.92405 23.93932 301 ft 10 kts 51°
2026-04-25 17:44 37.92459 23.94008 300 ft 13 kts 53°
2026-04-25 17:44 37.92455 23.94121 300 ft 16 kts 124°
2026-04-25 17:45 37.92420 23.94235 301 ft 0 kts 103°
2026-04-25 17:45 37.92419 23.94237 301 ft 1 kts 103°
2026-04-25 17:45 37.92419 23.94239 301 ft 0 kts 103°
2026-04-25 17:46 37.92416 23.94258 303 ft 4 kts 98°
2026-04-25 17:47 37.92414 23.94298 304 ft 6 kts 90°
2026-04-25 17:47 37.92419 23.94358 307 ft 8 kts 74°
2026-04-25 17:47 37.92432 23.94395 306 ft 0 kts 47°
2026-04-25 17:48 37.92990 23.94934 394 ft 110 kts 42°
2026-04-25 17:48 37.93637 23.95587 746 ft 121 kts 31°
2026-04-25 17:48 37.94448 23.95460 1038 ft 138 kts 329°
2026-04-25 17:49 37.95130 23.94501 1091 ft 152 kts 310°
2026-04-25 17:49 37.95603 23.93302 1279 ft 153 kts 296°
2026-04-25 17:49 37.96096 23.92107 1494 ft 156 kts 308°
2026-04-25 17:49 37.96723 23.91020 1903 ft 148 kts 314°
2026-04-25 17:50 37.97430 23.89995 1991 ft 161 kts 319°
2026-04-25 17:50 37.98228 23.89033 1982 ft 155 kts 320°
2026-04-25 17:50 37.98888 23.87988 1983 ft 152 kts 300°
2026-04-25 17:50 37.99336 23.86796 1984 ft 148 kts 299°
2026-04-25 17:51 37.99891 23.85735 1981 ft 142 kts 318°
2026-04-25 17:51 38.00601 23.84860 1986 ft 143 kts 319°
2026-04-25 17:51 38.01350 23.83939 2122 ft 153 kts 319°
2026-04-25 17:51 38.02273 23.83405 2470 ft 147 kts
2026-04-25 17:52 38.03158 23.83972 2783 ft 148 kts 44°
2026-04-25 17:52 38.03387 23.84286 2868 ft 149 kts 46°
2026-04-25 17:52 38.04565 23.85932 3390 ft 150 kts 46°
2026-04-25 17:52 38.05276 23.86918 3676 ft 154 kts 46°
2026-04-25 17:53 38.06001 23.87918 3960 ft 153 kts 46°
2026-04-25 17:53 38.06733 23.88918 4159 ft 156 kts 46°
2026-04-25 17:53 38.07474 23.89917 4443 ft 155 kts 46°
2026-04-25 17:53 38.08222 23.90916 4743 ft 156 kts 46°
2026-04-25 17:54 38.08979 23.91880 4997 ft 158 kts 41°
2026-04-25 17:54 38.10019 23.92289 5194 ft 166 kts 354°
2026-04-25 17:54 38.11126 23.91943 5495 ft 170 kts 347°
2026-04-25 17:54 38.12290 23.91484 5495 ft 178 kts 347°
2026-04-25 17:55 38.13428 23.91026 5499 ft 167 kts 345°
2026-04-25 17:55 38.14529 23.90588 5493 ft 165 kts 345°
2026-04-25 17:55 38.15263 23.90288 5495 ft 164 kts 347°
2026-04-25 17:55 38.16347 23.89826 5495 ft 164 kts 345°
2026-04-25 17:56 38.17785 23.89247 5495 ft 164 kts 345°
2026-04-25 17:56 38.18516 23.88945 5495 ft 163 kts 345°
2026-04-25 17:56 38.19603 23.88524 5496 ft 163 kts 346°
2026-04-25 17:56 38.20692 23.88105 5494 ft 163 kts 348°
2026-04-25 17:57 38.21758 23.87672 5504 ft 163 kts 346°
2026-04-25 17:57 38.22854 23.87236 5506 ft 163 kts 347°
2026-04-25 17:57 38.23931 23.86771 5508 ft 163 kts 344°
2026-04-25 17:57 38.24648 23.86469 5507 ft 166 kts 345°
2026-04-25 17:58 38.26106 23.85866 5517 ft 168 kts 345°
2026-04-25 17:58 38.27251 23.85410 5515 ft 171 kts 345°
2026-04-25 17:58 38.28386 23.84975 5510 ft 169 kts 347°
2026-04-25 17:58 38.29485 23.84530 5515 ft 168 kts 345°
2026-04-25 17:59 38.30603 23.84075 5515 ft 169 kts 345°
2026-04-25 17:59 38.31728 23.83620 5513 ft 170 kts 346°
2026-04-25 17:59 38.32849 23.83146 5514 ft 172 kts 344°
2026-04-25 17:59 38.33999 23.82689 5516 ft 174 kts 346°
2026-04-25 18:00 38.35159 23.82234 5519 ft 175 kts 345°
2026-04-25 18:00 38.36333 23.81789 5520 ft 177 kts 347°
2026-04-25 18:00 38.37510 23.81333 5520 ft 177 kts 348°
2026-04-25 18:00 38.38681 23.80866 5520 ft 176 kts 345°
2026-04-25 18:01 38.39852 23.80409 5521 ft 176 kts 347°
2026-04-25 18:01 38.41022 23.79937 5520 ft 177 kts 346°
2026-04-25 18:01 38.42201 23.79468 5516 ft 179 kts 345°
2026-04-25 18:01 38.43399 23.79017 5520 ft 180 kts 345°
2026-04-25 18:02 38.44609 23.78563 5517 ft 181 kts 346°
2026-04-25 18:02 38.45818 23.78129 5515 ft 181 kts 347°
2026-04-25 18:02 38.47022 23.77674 5518 ft 180 kts 345°
2026-04-25 18:02 38.48227 23.77213 5519 ft 181 kts 347°
2026-04-25 18:03 38.49432 23.76741 5518 ft 181 kts 345°
2026-04-25 18:03 38.50641 23.76276 5521 ft 182 kts 345°
2026-04-25 18:03 38.51857 23.75823 5520 ft 183 kts 347°
2026-04-25 18:03 38.53069 23.75368 5520 ft 181 kts 346°
2026-04-25 18:04 38.54246 23.74933 5525 ft 181 kts 346°
2026-04-25 18:04 38.55407 23.74510 5523 ft 181 kts 346°
2026-04-25 18:04 38.56627 23.74048 5545 ft 179 kts 346°
2026-04-25 18:04 38.57832 23.73591 5509 ft 182 kts 346°
2026-04-25 18:05 38.59025 23.73060 5504 ft 182 kts 332°
2026-04-25 18:05 38.60112 23.72320 5502 ft 178 kts 350°
2026-04-25 18:05 38.61302 23.72504 5511 ft 173 kts 20°
2026-04-25 18:05 38.62507 23.72740 5507 ft 181 kts 360°
2026-04-25 18:06 38.63788 23.72552 5501 ft 187 kts 354°
2026-04-25 18:06 38.65089 23.72323 5506 ft 190 kts 355°
2026-04-25 18:06 38.66408 23.72060 5503 ft 192 kts 354°
2026-04-25 18:06 38.67722 23.71783 5505 ft 190 kts 353°
2026-04-25 18:07 38.69029 23.71519 5510 ft 189 kts 353°
2026-04-25 18:07 38.70333 23.71262 5508 ft 190 kts 353°
2026-04-25 18:07 38.71639 23.71000 5514 ft 190 kts 354°
2026-04-25 18:07 38.72944 23.70734 5507 ft 190 kts 354°
2026-04-25 18:08 38.74241 23.70468 5505 ft 188 kts 354°
2026-04-25 18:08 38.75536 23.70216 5503 ft 188 kts 353°
2026-04-25 18:08 38.76833 23.69956 5502 ft 188 kts 352°
2026-04-25 18:08 38.78109 23.69693 5503 ft 188 kts 353°
2026-04-25 18:09 38.79404 23.69436 5502 ft 188 kts 355°
2026-04-25 18:09 38.80696 23.69175 5503 ft 188 kts 353°
2026-04-25 18:09 38.81988 23.68911 5501 ft 187 kts 355°
2026-04-25 18:09 38.82857 23.68740 5501 ft 187 kts 355°
2026-04-25 18:10 38.84562 23.68395 5503 ft 188 kts 354°
2026-04-25 18:10 38.85855 23.68130 5500 ft 187 kts 354°
2026-04-25 18:10 38.87140 23.67873 5501 ft 186 kts 353°
2026-04-25 18:10 38.88419 23.67613 5500 ft 186 kts 353°
2026-04-25 18:11 38.89697 23.67352 5500 ft 186 kts 353°
2026-04-25 18:11 38.90975 23.67095 5498 ft 186 kts 353°
2026-04-25 18:11 38.92253 23.66836 5497 ft 186 kts 353°
2026-04-25 18:11 38.93531 23.66577 5470 ft 187 kts 353°
2026-04-25 18:12 38.94811 23.66320 5164 ft 180 kts 353°
2026-04-25 18:12 38.96016 23.66074 4859 ft 172 kts 354°
2026-04-25 18:12 38.97180 23.65835 4543 ft 168 kts 354°
2026-04-25 18:12 38.98322 23.65604 4232 ft 165 kts 354°
2026-04-25 18:13 38.99450 23.65375 3998 ft 161 kts 354°
2026-04-25 18:13 39.00520 23.65156 3993 ft 151 kts 354°
2026-04-25 18:13 39.01544 23.64948 3992 ft 149 kts 354°
2026-04-25 18:14 39.03798 23.64503 4009 ft 174 kts 354°
2026-04-25 18:14 39.05013 23.64254 4006 ft 178 kts 353°
2026-04-25 18:14 39.06244 23.64003 4004 ft 180 kts 353°
2026-04-25 18:14 39.07483 23.63751 4005 ft 180 kts 354°
2026-04-25 18:15 39.08722 23.63500 3997 ft 180 kts 353°
2026-04-25 18:15 39.09960 23.63245 3997 ft 180 kts 353°
2026-04-25 18:15 39.11182 23.62993 3993 ft 172 kts 353°
2026-04-25 18:15 39.12306 23.62762 3984 ft 160 kts 353°
2026-04-25 18:16 39.13379 23.62543 3983 ft 154 kts 354°
2026-04-25 18:16 39.14432 23.62330 3985 ft 153 kts 354°
2026-04-25 18:16 39.16527 23.61910 3985 ft 152 kts 354°
2026-04-25 18:17 39.17573 23.61701 3991 ft 153 kts 354°
2026-04-25 18:17 39.18629 23.61482 3981 ft 154 kts 354°
2026-04-25 18:17 39.19719 23.61271 3731 ft 161 kts 354°
2026-04-25 18:17 39.20835 23.61059 3489 ft 163 kts 354°
2026-04-25 18:18 39.21952 23.60847 3229 ft 161 kts 354°
2026-04-25 18:18 39.23057 23.60686 2977 ft 159 kts 357°
2026-04-25 18:18 39.24164 23.60561 2729 ft 160 kts 357°
2026-04-25 18:18 39.25270 23.60441 2480 ft 159 kts 359°
2026-04-25 18:19 39.26378 23.60379 2227 ft 160 kts
2026-04-25 18:19 39.27489 23.60337 2006 ft 159 kts
2026-04-25 18:19 39.28557 23.60294 1996 ft 150 kts 360°
2026-04-25 18:19 39.29589 23.60249 1996 ft 147 kts
2026-04-25 18:20 39.30580 23.60000 1991 ft 149 kts 330°
2026-04-25 18:20 39.31291 23.59022 1994 ft 153 kts 302°
2026-04-25 18:20 39.31786 23.57797 1996 ft 154 kts 300°
2026-04-25 18:20 39.32095 23.56469 1983 ft 158 kts 270°
2026-04-25 18:21 39.31674 23.55178 1954 ft 167 kts 224°
2026-04-25 18:21 39.30602 23.54586 1738 ft 175 kts 183°
2026-04-25 18:21 39.29401 23.54579 1699 ft 168 kts 177°
2026-04-25 18:21 39.28249 23.54640 1693 ft 165 kts 175°
2026-04-25 18:22 39.27107 23.54672 1729 ft 164 kts 183°
2026-04-25 18:22 39.26725 23.54598 1713 ft 165 kts 193°
2026-04-25 18:22 39.24826 23.53770 1164 ft 169 kts 201°
2026-04-25 18:22 39.23818 23.53228 1073 ft 153 kts 204°
2026-04-25 18:23 39.22865 23.52739 919 ft 128 kts 201°
2026-04-25 18:23 39.22091 23.52360 718 ft 124 kts 201°
2026-04-25 18:23 39.21261 23.51971 553 ft 118 kts 200°
2026-04-25 18:23 39.20590 23.51672 357 ft 88 kts 200°
2026-04-25 18:24 39.19949 23.51374 309 ft 107 kts 200°
2026-04-25 18:24 39.19235 23.51038 240 ft 99 kts 198°
2026-04-25 18:24 39.18642 23.50778 116 ft 81 kts 200°
2026-04-25 18:24 39.18167 23.50564 47 ft 63 kts 191°
2026-04-25 18:25 39.17811 23.50413 37 ft 47 kts 201°
2026-04-25 18:25 39.17633 23.50329 36 ft 26 kts 199°
2026-04-25 18:25 39.17562 23.50275 32 ft 8 kts 257°
2026-04-25 18:25 39.17584 23.50209 32 ft 5 kts
2026-04-25 18:26 39.17629 23.50228 33 ft 9 kts 18°
2026-04-25 18:26 39.17708 23.50256 35 ft 14 kts 13°
2026-04-25 18:26 39.17811 23.50283 38 ft 15 kts 350°
2026-04-25 18:26 39.17876 23.50226 46 ft 8 kts 323°
2026-04-25 18:27 39.17891 23.50211 49 ft 0 kts 323°